Content
SEND FEEDBACK

Daily
Averages
Monthly
Summary
United States of America

HAZELWOOD, MISSOURI


Home > North America > United States > Missouri
Elevation: 570 feet     Latitude: 38 45N     Longitude: 090 22W

WEATHER
 
SELECT A DAY
Number of Records: 199,721;   Date Range: 1/1/95 - 10/23/14
 
SHARE

PRINT THIS DATA

[ ← Previous Day ]
WEATHER ALMANAC - FEBRUARY 4, 2013
[ Next Day → ]
[ °C ]   °F
Weather ElementAverageHighLow
Temperature40.5 °F57 °F (12:54 pm)25 °F (1:54 am)
Dewpoint27.1 °F33.1 °F (12:54 pm)18 °F (1:54 am)
Humidity60.4 %75 % (1:54 am)40 % (12:54 pm)
Barometer29.88 in30.00 in (8:54 pm)29.81 in (12:54 pm)
Wind Speed8 mph16.1 mph (12:54 pm)
Wind Gust23 mph (12:54 pm)
Weather ElementAverage
Visibility10 mi
Wind DirectionSSW (215 °)

Weather ElementTotal
Precipitation---
Heating Degree Days24 (Base 65)
Averaged from 20 records on February 4, 2013
WEATHER CONDITIONS BREAKOUT
WIND DIRECTION BREAKOUT
WEATHER BY HOUR - FEBRUARY 4, 2013
[ °C ]   °F
Local TimeTemperatureDewpointHumidityBarometerVisibilityWind DirectionWind SpeedGust SpeedPrecipitationEventsConditions
1:54 AM25.0 °F18.0 °F75 %29.97 in10.0 miENE (70°)4.6 mphClear
2:54 AM30.0 °F21.0 °F69 %29.94 in10.0 miENE (70°)6.9 mphOvercast
4:54 AM30.9 °F23.0 °F72 %29.88 in10.0 miEast (80°)4.6 mphOvercast
5:54 AM32.0 °F24.1 °F73 %29.86 in10.0 miCalmOvercast
6:54 AM36.0 °F23.0 °F59 %29.84 in10.0 miEast (80°)3.5 mphOvercast
7:54 AM35.1 °F25.0 °F67 %29.86 in10.0 miSouth (180°)4.6 mphOvercast
8:54 AM37.0 °F27.0 °F67 %29.86 in10.0 miCalmMostly Cloudy
9:54 AM39.0 °F28.9 °F67 %29.86 in10.0 miCalmMostly Cloudy
10:54 AM50.0 °F28.0 °F43 %29.84 in10.0 miSW (230°)10.4 mphScattered Clouds
11:54 AM54.0 °F30.9 °F41 %29.82 in10.0 miWest (260°)13.8 mphPartly Cloudy
12:54 PM57.0 °F33.1 °F40 %29.81 in10.0 miWest (260°)16.1 mph23.0 mphPartly Cloudy
1:54 PM55.9 °F33.1 °F42 %29.81 in10.0 miNNW (330°)12.7 mphPartly Cloudy
2:54 PM52.0 °F32.0 °F47 %29.82 in10.0 miNW (320°)13.8 mphPartly Cloudy
3:54 PM50.0 °F30.9 °F48 %29.84 in10.0 miNNW (340°)12.7 mph21.9 mphPartly Cloudy
4:54 PM46.0 °F32.0 °F58 %29.87 in10.0 miNorth (350°)10.4 mphClear
5:54 PM41.0 °F28.9 °F62 %29.91 in10.0 miNNW (340°)10.4 mph20.7 mphClear
6:54 PM37.9 °F27.0 °F65 %29.93 in10.0 miNNW (340°)9.2 mphClear
7:54 PM35.1 °F26.1 °F70 %29.97 in10.0 miNorth (360°)9.2 mphClear
8:54 PM33.1 °F25.0 °F72 %30.00 in10.0 miNNW (340°)8.1 mphScattered Clouds
9:07 PM33.8 °F24.8 °F70 %29.99 in10.0 miNorth (350°)9.2 mphMostly Cloudy
Hourly data recorded from KSUS, located miles away from Hazelwood, Missouri







STORIES FROM OUR PARTNERS